Location: Fort Wayne
(41.1310°N, 85.1290°W)
Time: 04:46:43
(UTC-05:00)

Courier 1B Rocket - All Passes

Search period start: 17 December 2017 00:00
Search period end: 27 December 2017 00:00
Orbit: 920 x 1202 km, 28.2° (Epoch: 16 December)

Date Brightness Start Highest point End Pass type
(mag) Time Alt. Az. Time Alt. Az. Time Alt. Az.
17 Dec - 13:21:22 10° SSW 13:26:30 20° SSE 13:31:29 10° ESE daylight
17 Dec - 15:13:08 10° SW 15:19:16 28° S 15:25:03 10° ESE daylight
17 Dec - 17:06:24 10° WSW 17:11:59 25° S 17:17:16 10° SE daylight
17 Dec - 19:01:36 10° SW 19:04:22 13° SSW 19:07:05 10° S visible
18 Dec - 12:21:19 10° SSW 12:25:38 16° SSE 12:29:52 10° ESE daylight
18 Dec - 14:12:15 10° SW 14:18:21 27° S 14:24:10 10° ESE daylight
18 Dec - 16:05:07 10° WSW 16:11:09 28° S 16:16:50 10° SE daylight
18 Dec - 17:59:20 10° WSW 18:03:41 17° SSW 18:07:52 10° SSE visible
19 Dec - 11:22:11 10° S 11:24:47 12° SSE 11:27:22 10° SE daylight
19 Dec - 13:11:31 10° SW 13:17:26 24° SSE 13:23:07 10° ESE daylight
19 Dec - 15:03:57 10° WSW 15:10:15 29° S 15:16:14 10° SE daylight
19 Dec - 16:57:38 10° WSW 17:02:56 22° SSW 17:07:59 10° SSE daylight
20 Dec - 12:11:04 10° SSW 12:16:30 21° SSE 12:21:49 10° ESE daylight
20 Dec - 14:02:54 10° SW 14:09:19 29° S 14:15:27 10° ESE daylight
20 Dec - 15:56:11 10° WSW 16:02:07 26° SSW 16:07:45 10° SE daylight
20 Dec - 17:51:20 10° SW 17:54:34 14° SSW 17:57:43 10° S visible
21 Dec - 11:11:01 10° SSW 11:15:36 17° SSE 11:20:08 10° ESE daylight
21 Dec - 13:02:00 10° SW 13:08:21 28° S 13:14:29 10° ESE daylight
21 Dec - 14:54:53 10° WSW 15:01:13 29° S 15:07:15 10° SE daylight
21 Dec - 16:49:06 10° WSW 16:53:50 18° SSW 16:58:23 10° SSE daylight
22 Dec - 10:11:51 10° S 10:14:44 12° SSE 10:17:38 10° SE daylight
22 Dec - 12:01:18 10° SW 12:07:23 25° SSE 12:13:21 10° ESE daylight
22 Dec - 13:53:42 10° WSW 14:00:16 30° S 14:06:34 10° ESE daylight
22 Dec - 15:47:24 10° WSW 15:53:02 23° SSW 15:58:25 10° SSE daylight
23 Dec - 11:00:53 10° SSW 11:06:26 21° SSE 11:11:58 10° ESE daylight
23 Dec - 12:52:41 10° SW 12:59:17 30° S 13:05:41 10° ESE daylight
23 Dec - 14:45:57 10° WSW 14:52:09 27° SSW 14:58:06 10° SE daylight
23 Dec - 16:41:02 10° SW 16:44:42 14° SSW 16:48:16 10° S daylight
24 Dec - 10:00:54 10° SSW 10:05:32 17° SSE 10:10:12 10° ESE daylight
24 Dec - 11:51:50 10° SW 11:58:17 29° S 12:04:39 10° ESE daylight
24 Dec - 13:44:40 10° WSW 13:51:12 30° S 13:57:32 10° SE daylight
24 Dec - 15:38:51 10° WSW 15:43:55 19° SSW 15:48:47 10° SSE daylight
25 Dec - 09:01:47 10° S 09:04:42 12° SSE 09:07:37 10° SE daylight
25 Dec - 10:51:11 10° SW 10:57:18 25° SSE 11:03:25 10° ESE daylight
25 Dec - 12:43:32 10° WSW 12:50:12 31° S 12:56:45 10° ESE daylight
25 Dec - 14:37:11 10° WSW 14:43:02 24° SSW 14:48:44 10° SSE daylight
25 Dec - 16:34:48 10° SW 16:35:30 10° SSW 16:36:11 10° SSW daylight
26 Dec - 09:50:51 10° SSW 09:56:21 21° SSE 10:01:56 10° ESE daylight
26 Dec - 11:42:34 10° SW 11:49:11 31° S 11:55:47 10° ESE daylight
26 Dec - 13:35:45 10° WSW 13:42:06 28° S 13:48:19 10° SE daylight
26 Dec - 15:30:44 10° WSW 15:34:44 15° SSW 15:38:38 10° S daylight
